Location: Dittelspoint
(48.7198°N, 10.7214°E)
Time: 09:12:52
(UTC+00:00)

Cosmos 2322 Rocket - Pass Details

Date: 09 April 2020
Orbit: 834 x 849 km, 71.0° (Epoch: 23 May)

Event Time Altitude Azimuth Distance (km) Brightness Sun altitude
Rises 21:35:21 0° 335° (NNW) 3,407 6.6 -28.9°
Reaches altitude 10° 21:38:00 10° 343° (NNW) 2,466 5.5 -29.1°
Enters shadow 21:43:14 38° 51° (NE) 1,263 3.1 -29.5°
